GW5216 Weather Reports


Display with metric or nautical units.
time (UTC)temp
F
wind
direction
speed
MPH
gust
MPH
rain 1hr
in
rain 24hr
in
rain mn
in
humidity
%
barometer
mb
20260506014228 60 202 2.0 5.0 0.00 0.00 0.00 50 1014.9
20260506013726 60 201 2.0 3.0 0.00 0.00 0.00 48 1014.8
20260506013223 61 188 2.0 6.0 0.00 0.00 0.00 48 1014.8
20260506012719 61 129 2.0 3.0 0.00 0.00 0.00 48 1014.8
20260506012216 61 348 2.0 4.0 0.00 0.00 0.00 48 1014.7
20260506011713 61 172 0.0 1.0 0.00 0.00 0.00 47 1014.5
20260506011209 62 178 0.0 3.0 0.00 0.00 0.00 47 1014.4
20260506010708 62 193 3.0 7.0 0.00 0.00 0.00 47 1014.5
20260506010205 62 141 1.0 3.0 0.00 0.00 0.00 47 1014.5
20260506005702 62 203 1.0 4.0 0.00 0.00 0.00 46 1014.5
20260506005159 62 169 2.0 5.0 0.00 0.00 0.00 45 1014.6
20260506004655 62 163 3.0 4.0 0.00 0.00 0.00 44 1014.6
20260506004152 63 218 1.0 2.0 0.00 0.00 0.00 44 1014.7
20260506003648 63 79 2.0 5.0 0.00 0.00 0.00 44 1014.6
20260506003145 63 192 2.0 5.0 0.00 0.00 0.00 44 1014.5
20260506002641 63 203 3.0 6.0 0.00 0.00 0.00 44 1014.5
20260506002137 63 199 1.0 4.0 0.00 0.00 0.00 43 1014.5
20260506001633 63 187 4.0 8.0 0.00 0.00 0.00 43 1014.5
20260506001131 63 181 3.0 8.0 0.00 0.00 0.00 44 1014.5
20260506000628 63 217 2.0 5.0 0.00 0.00 0.00 44 1014.4
20260506000125 64 202 1.0 2.0 0.00 0.00 0.00 42 1014.3
20260505235623 64 225 1.0 2.0 0.00 0.00 0.00 43 1014.2
20260505235120 64 213 4.0 7.0 0.00 0.00 0.00 43 1014.2
20260505234617 65 232 1.0 4.0 0.00 0.00 0.00 43 1014.1
20260505234113 65 171 0.0 2.0 0.00 0.00 0.00 45 1013.9
20260505233611 65 219 0.0 0.0 0.00 0.00 0.00 45 1013.9
20260505233108 65 139 2.0 3.0 0.00 0.00 0.00 45 1013.9
20260505232606 65 145 2.0 4.0 0.00 0.00 0.00 45 1014.0
20260505232103 65 202 1.0 2.0 0.00 0.00 0.00 47 1014.0
20260505231600 65 205 1.0 5.0 0.00 0.00 0.00 47 1014.2
20260505231059 65 208 1.0 3.0 0.00 0.00 0.00 47 1014.0
20260505230556 65 206 1.0 3.0 0.00 0.00 0.00 47 1014.0
20260505230052 64 184 2.0 7.0 0.00 0.00 0.00 49 1014.0
20260505225549 64 266 0.0 2.0 0.00 0.00 0.00 50 1013.9
20260505225045 64 188 2.0 4.0 0.00 0.00 0.00 49 1013.8
20260505224542 64 299 2.0 4.0 0.00 0.00 0.00 49 1013.8
20260505224039 64 299 2.0 5.0 0.00 0.00 0.00 48 1013.7
20260505223536 65 121 2.0 4.0 0.00 0.00 0.00 45 1013.6
20260505223032 66 263 1.0 4.0 0.00 0.00 0.00 45 1013.6
20260505222529 67 284 2.0 8.0 0.00 0.00 0.00 44 1013.6
20260505222025 68 177 1.0 2.0 0.00 0.00 0.00 43 1013.5
20260505221522 68 185 2.0 3.0 0.00 0.00 0.00 42 1013.5
20260505221019 69 185 1.0 3.0 0.00 0.00 0.00 41 1013.4
20260505220516 70 155 2.0 4.0 0.00 0.00 0.00 40 1013.4
20260505220014 70 256 2.0 6.0 0.00 0.00 0.00 41 1013.4
20260505215512 70 213 1.0 3.0 0.00 0.00 0.00 42 1013.3
20260505215009 69 195 1.0 3.0 0.00 0.00 0.00 44 1013.5
20260505214508 69 201 1.0 3.0 0.00 0.00 0.00 43 1013.4
20260505214004 69 109 1.0 3.0 0.00 0.00 0.00 44 1013.5
20260505213502 69 251 0.0 2.0 0.00 0.00 0.00 45 1013.3
20260505212958 68 206 1.0 3.0 0.00 0.00 0.00 45 1013.3
20260505212454 68 200 0.0 1.0 0.00 0.00 0.00 44 1013.3
20260505211951 68 217 0.0 0.0 0.00 0.00 0.00 44 1013.1
20260505211449 69 200 2.0 4.0 0.00 0.00 0.00 44 1013.1
20260505210945 69 192 2.0 4.0 0.00 0.00 0.00 46 1013.2
20260505210442 69 209 1.0 2.0 0.00 0.00 0.00 45 1013.1
20260505205938 69 349 0.0 2.0 0.00 0.00 0.00 45 1013.0
20260505205437 69 170 3.0 5.0 0.00 0.00 0.00 45 1012.9
20260505204933 69 199 1.0 3.0 0.00 0.00 0.00 47 1013.0
20260505204432 69 297 0.0 2.0 0.00 0.00 0.00 50 1013.0
20260505203929 68 157 0.0 2.0 0.00 0.00 0.00 49 1012.9
20260505203425 68 226 1.0 2.0 0.00 0.00 0.00 47 1012.6
20260505202921 68 49 1.0 3.0 0.00 0.00 0.00 49 1012.7
20260505202417 67 180 1.0 4.0 0.00 0.00 0.00 51 1012.7
20260505201914 66 159 0.0 3.0 0.00 0.00 0.00 51 1012.6
20260505201411 65 165 1.0 4.0 0.00 0.00 0.00 53 1012.5
20260505200910 65 214 1.0 3.0 0.00 0.00 0.00 53 1012.4
20260505200406 65 192 2.0 9.0 0.00 0.00 0.00 56 1012.5
20260505195901 63 176 1.0 3.0 0.00 0.00 0.00 59 1012.5
20260505195359 62 145 0.0 4.0 0.00 0.00 0.00 62 1012.4
20260505194856 62 66 0.0 2.0 0.00 0.00 0.00 64 1012.4
20260505194354 62 281 0.0 0.0 0.00 0.00 0.00 62 1012.4
20260505193854 62 282 1.0 5.0 0.00 0.00 0.00 62 1012.5
20260505193352 61 214 1.0 3.0 0.00 0.00 0.00 64 1012.4
20260505192849 61 247 0.0 1.0 0.00 0.00 0.00 65 1012.2
20260505192348 60 251 1.0 3.0 0.00 0.00 0.00 69 1012.2
20260505191845 61 310 1.0 3.0 0.00 0.00 0.00 69 1012.1
20260505191343 61 315 0.0 2.0 0.00 0.00 0.00 67 1012.1
20260505190840 61 301 1.0 3.0 0.00 0.00 0.00 68 1012.2
20260505190335 61 292 1.0 2.0 0.00 0.00 0.00 70 1012.2
20260505185831 61 292 1.0 2.0 0.00 0.00 0.00 68 1012.1
20260505185328 61 325 0.0 1.0 0.00 0.00 0.00 66 1012.0
20260505184824 61 258 0.0 1.0 0.00 0.00 0.00 68 1012.0
20260505184321 60 337 0.0 0.0 0.00 0.00 0.00 71 1011.9
20260505183818 59 45 0.0 0.0 0.00 0.00 0.00 73 1012.0
20260505183315 59 292 0.0 0.0 0.00 0.00 0.00 74 1012.0
20260505182812 58 307 0.0 2.0 0.00 0.00 0.00 72 1012.2
20260505182308 58 315 1.0 2.0 0.00 0.00 0.00 72 1012.1
20260505181805 58 202 0.0 0.0 0.00 0.00 0.00 75 1011.9
20260505181303 57 3 0.0 0.0 0.00 0.00 0.00 75 1011.8
20260505180759 57 18 1.0 5.0 0.00 0.00 0.00 76 1011.8
20260505180255 56 271 0.0 2.0 0.00 0.00 0.00 78 1011.7
20260505175752 56 337 0.0 2.0 0.00 0.00 0.00 80 1011.6
20260505175248 55 214 0.0 0.0 0.00 0.00 0.00 80 1011.7
20260505174745 55 310 0.0 0.0 0.00 0.00 0.00 80 1011.7
20260505174242 55 270 0.0 0.0 0.00 0.00 0.00 80 1011.7
20260505173738 55 288 0.0 0.0 0.00 0.00 0.00 81 1011.6
20260505173235 55 279 1.0 2.0 0.00 0.00 0.00 81 1011.9
20260505172732 55 270 0.0 0.0 0.00 0.00 0.00 81 1011.5
20260505172229 54 308 0.0 1.0 0.00 0.00 0.00 84 1011.6
20260505171729 53 292 0.0 0.0 0.00 0.00 0.00 84 1011.6
20260505171226 53 292 0.0 0.0 0.00 0.00 0.00 84 1011.6
20260505170723 52 278 0.0 0.0 0.00 0.00 0.00 84 1011.7
20260505170220 52 289 0.0 2.0 0.00 0.00 0.00 85 1011.5
20260505165715 52 315 0.0 1.0 0.00 0.00 0.00 86 1011.4
20260505165211 51 315 1.0 3.0 0.00 0.00 0.00 89 1011.5
20260505164707 50 315 1.0 2.0 0.00 0.00 0.00 90 1011.3
20260505164204 50 309 1.0 3.0 0.00 0.00 0.00 90 1011.2
20260505163702 49 293 1.0 2.0 0.00 0.00 0.00 91 1011.2
20260505163201 49 315 0.0 1.0 0.00 0.00 0.00 91 1011.1
20260505162658 49 315 0.0 0.0 0.00 0.00 0.00 92 1011.0
20260505162155 49 315 0.0 0.0 0.00 0.00 0.00 90 1011.0
20260505161651 49 315 0.0 0.0 0.00 0.00 0.00 90 1010.8
20260505161149 49 292 0.0 0.0 0.00 0.00 0.00 91 1010.8
20260505160647 49 292 0.0 0.0 0.00 0.00 0.00 92 1010.7
20260505160144 49 328 0.0 0.0 0.00 0.00 0.00 92 1010.6
20260505153123 47 292 0.0 0.0 0.00 0.00 0.00 95 1010.4
20260505152620 47 292 0.0 0.0 0.00 0.00 0.00 96 1010.2
20260505152115 46 292 0.0 0.0 0.00 0.00 0.00 97 1010.2
20260505151611 46 292 0.0 0.0 0.00 0.00 0.00 98 1010.0
20260505151109 45 337 0.0 0.0 0.00 0.00 0.00 99 1010.0
20260505150605 45 337 0.0 0.0 0.00 0.00 0.00 98 1009.9
20260505140530 43 337 0.0 0.0 0.00 0.00 0.00 99 1010.0
20260505124943 42 337 0.0 0.0 0.00 0.00 0.00 98 1009.4
20260505124440 42 337 0.0 0.0 0.00 0.00 0.00 99 1009.6
20260505123936 42 337 0.0 0.0 0.00 0.00 0.00 99 1009.4
20260505123433 42 337 0.0 0.0 0.00 0.00 0.00 98 1009.3
20260505122929 42 337 0.0 0.0 0.00 0.00 0.00 98 1009.0
20260505122427 42 337 0.0 0.0 0.00 0.00 0.00 98 1009.2
20260505121923 42 337 0.0 0.0 0.00 0.00 0.00 98 1009.1
20260505121420 42 337 0.0 0.0 0.00 0.00 0.00 98 1009.3
20260505120916 42 337 0.0 0.0 0.00 0.00 0.00 99 1009.3
20260505120413 42 337 0.0 0.0 0.00 0.00 0.00 98 1009.3
20260505115912 42 337 0.0 0.0 0.00 0.00 0.00 97 1009.2
20260505115408 42 337 0.0 0.0 0.00 0.00 0.00 98 1009.2
20260505114906 43 337 0.0 0.0 0.00 0.00 0.00 97 1009.1
20260505114402 43 337 0.0 0.0 0.00 0.00 0.00 97 1009.2
20260505113859 43 337 0.0 0.0 0.00 0.00 0.00 97 1009.2
20260505113356 43 337 0.0 0.0 0.00 0.00 0.00 98 1009.4
20260505112851 43 337 0.0 0.0 0.00 0.00 0.00 99 1009.3
20260505112349 43 337 0.0 0.0 0.00 0.00 0.00 98 1009.4
20260505111845 43 337 0.0 0.0 0.00 0.00 0.00 98 1009.5
20260505111340 43 337 0.0 0.0 0.00 0.00 0.00 98 1009.4
20260505110836 43 337 0.0 0.0 0.00 0.00 0.00 96 1009.4
20260505110334 43 337 0.0 0.0 0.00 0.00 0.00 96 1009.6
20260505101809 44 337 0.0 0.0 0.00 0.00 0.00 96 1009.8
20260505101304 44 337 0.0 0.0 0.00 0.00 0.00 95 1009.7
20260505100800 44 337 0.0 0.0 0.00 0.00 0.00 93 1009.8
20260505100257 44 337 0.0 0.0 0.00 0.00 0.00 92 1009.9
20260505095753 45 337 0.0 0.0 0.00 0.00 0.00 91 1009.8
20260505095251 45 337 0.0 0.0 0.00 0.00 0.00 92 1010.0
20260505094746 46 337 0.0 0.0 0.00 0.00 0.00 92 1009.8
20260505094243 45 337 0.0 0.0 0.00 0.00 0.00 92 1010.0
20260505093739 45 337 0.0 0.0 0.00 0.00 0.00 92 1009.9
20260505093237 46 337 0.0 0.0 0.00 0.00 0.00 93 1009.9
20260505092733 46 337 0.0 0.0 0.00 0.00 0.00 94 1009.9
20260505092232 46 337 0.0 0.0 0.00 0.00 0.00 93 1010.1
20260505091729 46 337 0.0 0.0 0.00 0.00 0.00 93 1009.9
20260505091227 46 337 0.0 0.0 0.00 0.00 0.00 92 1010.1
20260505090724 46 337 0.0 0.0 0.00 0.00 0.00 93 1010.1
20260505090223 46 337 0.0 0.0 0.00 0.00 0.00 92 1010.1
20260505085719 46 337 0.0 0.0 0.00 0.00 0.00 91 1010.1
20260505085218 46 337 0.0 0.0 0.00 0.00 0.00 91 1010.3
20260505084714 47 337 0.0 0.0 0.00 0.00 0.00 92 1010.2
20260505084214 46 337 0.0 0.0 0.00 0.00 0.00 91 1010.2
20260505083710 46 337 0.0 0.0 0.00 0.00 0.00 91 1010.2
20260505083207 46 337 0.0 0.0 0.00 0.00 0.00 92 1010.3
20260505082702 46 337 0.0 0.0 0.00 0.00 0.00 90 1010.2
20260505082200 46 337 0.0 0.0 0.00 0.00 0.00 90 1010.2
20260505081655 46 337 0.0 0.0 0.00 0.00 0.00 88 1010.1
20260505081153 47 337 0.0 0.0 0.00 0.00 0.00 88 1010.1
20260505080650 47 337 0.0 0.0 0.00 0.00 0.00 87 1010.1
20260505080146 47 337 0.0 0.0 0.00 0.00 0.00 88 1010.2
20260505075642 47 337 0.0 0.0 0.00 0.00 0.00 89 1010.2
20260505075139 47 337 0.0 0.0 0.00 0.00 0.00 89 1010.3
20260505074636 47 337 0.0 0.0 0.00 0.00 0.00 91 1010.2
20260505074133 47 337 0.0 0.0 0.00 0.00 0.00 91 1010.3
20260505073631 47 337 0.0 0.0 0.00 0.00 0.00 90 1010.4
20260505073129 47 337 0.0 0.0 0.00 0.00 0.00 89 1010.4
20260505072624 47 45 0.0 0.0 0.00 0.00 0.00 91 1010.4
20260505072121 47 45 0.0 0.0 0.00 0.00 0.00 91 1010.3
20260505071617 47 45 0.0 0.0 0.00 0.00 0.00 91 1010.3
20260505071115 47 45 0.0 0.0 0.00 0.00 0.00 90 1010.3
20260505070612 47 45 0.0 0.0 0.00 0.00 0.00 89 1010.5
20260505070108 47 45 0.0 0.0 0.00 0.00 0.00 86 1010.3
20260505065604 47 45 0.0 0.0 0.00 0.00 0.00 85 1010.4
20260505065100 48 45 0.0 0.0 0.00 0.00 0.00 84 1010.5
20260505064557 48 45 0.0 0.0 0.00 0.00 0.00 86 1010.5
20260505064056 48 270 0.0 0.0 0.00 0.00 0.00 88 1010.5
20260505063553 48 270 0.0 0.0 0.00 0.00 0.00 88 1010.5
20260505063048 48 270 0.0 0.0 0.00 0.00 0.00 87 1010.6
20260505062545 48 270 0.0 0.0 0.00 0.00 0.00 87 1010.8
20260505062042 49 337 0.0 0.0 0.00 0.00 0.00 88 1010.8
20260505061540 49 337 0.0 0.0 0.00 0.00 0.00 88 1010.7
20260505061038 49 337 0.0 0.0 0.00 0.00 0.00 88 1010.7
20260505060535 49 337 0.0 0.0 0.00 0.00 0.00 87 1010.6
20260505060031 48 337 0.0 0.0 0.00 0.00 0.00 88 1010.8
20260505055527 47 22 0.0 0.0 0.00 0.00 0.00 90 1010.8
20260505055024 47 315 0.0 0.0 0.00 0.00 0.00 89 1010.8
20260505054521 47 337 0.0 0.0 0.00 0.00 0.00 88 1010.8
20260505054019 47 337 0.0 0.0 0.00 0.00 0.00 89 1010.8
20260505053516 48 337 0.0 0.0 0.00 0.00 0.00 88 1010.9
20260505053013 48 337 0.0 0.0 0.00 0.00 0.00 88 1010.9
20260505052510 49 337 0.0 0.0 0.00 0.00 0.00 88 1011.0
20260505052007 49 337 0.0 0.0 0.00 0.00 0.00 89 1011.1
20260505051504 49 337 0.0 0.0 0.00 0.00 0.00 89 1011.1
20260505051002 49 337 0.0 0.0 0.00 0.00 0.00 88 1011.2
20260505050500 49 337 0.0 0.0 0.00 0.00 0.00 85 1011.1
20260505041427 55 337 0.0 0.0 0.00 0.00 0.00 72 1011.4
20260505040925 56 292 0.0 0.0 0.00 0.00 0.00 73 1011.5
20260505040422 56 292 0.0 0.0 0.00 0.00 0.00 71 1011.6
20260505035919 57 292 0.0 0.0 0.00 0.00 0.00 69 1011.6
20260505035415 58 315 0.0 0.0 0.00 0.00 0.00 66 1011.6
20260505034912 58 315 0.0 0.0 0.00 0.00 0.00 63 1011.7
20260505034408 59 292 0.0 1.0 0.00 0.00 0.00 62 1011.7
20260505033906 59 270 0.0 0.0 0.00 0.00 0.00 58 1011.6
20260505033402 59 315 0.0 1.0 0.00 0.00 0.00 57 1011.8
20260505032901 60 344 1.0 3.0 0.00 0.00 0.00 56 1011.8
20260505032357 60 299 1.0 3.0 0.00 0.00 0.00 57 1011.8
20260505031854 60 270 0.0 0.0 0.00 0.00 0.00 58 1011.7
20260505031351 60 270 0.0 0.0 0.00 0.00 0.00 57 1011.6
20260505030848 60 270 0.0 1.0 0.00 0.00 0.00 55 1011.6
20260505030343 61 22 0.0 0.0 0.00 0.00 0.00 55 1011.8
20260505025839 61 228 0.0 0.0 0.00 0.00 0.00 55 1011.9
20260505025337 61 270 0.0 2.0 0.00 0.00 0.00 56 1011.9
20260505024835 61 255 1.0 3.0 0.00 0.00 0.00 57 1012.0
20260505024333 61 237 0.0 0.0 0.00 0.00 0.00 57 1012.1
20260505023830 61 183 1.0 3.0 0.00 0.00 0.00 57 1012.0
20260505023326 61 135 0.0 1.0 0.00 0.00 0.00 55 1012.2
20260505022824 62 135 0.0 0.0 0.00 0.00 0.00 55 1012.2
20260505022321 62 183 3.0 5.0 0.00 0.00 0.00 53 1012.2
20260505021818 62 188 1.0 3.0 0.00 0.00 0.00 54 1012.2
20260505021315 62 191 1.0 3.0 0.00 0.00 0.00 54 1012.3
20260505020810 62 202 0.0 3.0 0.00 0.00 0.00 54 1012.3
20260505020306 62 157 0.0 2.0 0.00 0.00 0.00 53 1012.4
20260505015803 63 167 2.0 4.0 0.00 0.00 0.00 51 1012.5
20260505015300 63 175 0.0 1.0 0.00 0.00 0.00 52 1012.5
20260505014758 63 204 1.0 2.0 0.00 0.00 0.00 53 1012.5